Location: New Frontier Mobile Home Park
(32.8448°N, 116.9675°W)
Time: 23:15:10
(UTC+00:00)

Cosmos 1943 Rocket - Pass Details

Date: 14 July 2020
Orbit: 811 x 845 km, 71.0° (Epoch: 05 August)

Event Time Altitude Azimuth Distance (km) Brightness Sun altitude
Rises 06:34:44 0° 341° (NNW) 3,404 6.5 -32.4°
Reaches altitude 10° 06:37:13 10° 344° (NNW) 2,463 5.5 -32.6°
Enters shadow 06:41:23 49° 1° (N) 1,067 2.9 -32.9°
